Flag for Germany Weather past 2 weeks in Achern, Baden-Württemberg, Germany

Now
68 °F

Passing clouds.


Feels Like: 68 °F
Forecast: 51 / 71 °F
Wind: 9 mph from North

Location: Karlsruhe - Baden Wurttemberg

Current Time: May 23, 2015 at 1:29:38 PM

Latest Report: May 23, 2015 at 12:50 PM


Visibility: N/A

Pressure: 30.09 "Hg

Humidity: 40%

Dew point: 43 °F

Location of AchernLocation

Historic Weather in Achern — Graph

°F

Achern temperature yesterday

Maximum temperature yesterday: 68 °F (at 4:50 PM)
Minimum temperature yesterday: 39 °F (at 4:50 AM)
Average temperature yesterday: 57 °F

Past Weeks' High & Low Weather Summary

 TemperatureHumidityPressure
High84 °F (May 12, 2:20 PM)94% (May 11, 4:50 AM)30.36 "Hg (May 11, 4:50 AM)
Low39 °F (May 22, 4:50 AM)26% (May 22, 4:50 PM)29.71 "Hg (May 18, 7:50 PM)
Average61 °F60%30.09 "Hg
* Reported May 8 12:20 PM — May 23 12:20 PM, Achern, Weather by CustomWeather, © 2015

Note: Actual official high and low records may vary slightly from our data, if they occured in-between our weather recording intervals... More about our weather records

Advertising

Achern weather history for previous 24 hours

 ConditionsComfort  
Time TempWeatherWind HumidityBarometerVisibility
12:20 PM
Sat, May 23
66 °FSunny.13 mph43%30.09 "Hg10 mi
11:50 AM64 °FSunny.12 mph46%30.09 "Hg10 mi
11:20 AM64 °FSunny.10 mph43%30.09 "Hg10 mi
10:50 AM63 °FPassing clouds.8 mph45%30.09 "HgN/A
10:20 AM61 °FPassing clouds.9 mph48%30.12 "HgN/A
9:50 AM61 °FPassing clouds.8 mph52%30.12 "HgN/A
9:20 AM57 °FSunny.6 mph59%30.12 "Hg10 mi
8:50 AM54 °FSunny.6 mph67%30.12 "Hg10 mi
8:20 AM52 °FSunny.6 mph67%30.12 "Hg10 mi
7:50 AM50 °FSunny.3 mph76%30.12 "Hg10 mi
7:20 AM48 °FSunny.2 mph82%30.12 "Hg10 mi
6:50 AM46 °FSunny.1 mph76%30.12 "Hg10 mi
6:20 AM45 °FClear.2 mph81%30.12 "Hg10 mi
5:50 AM45 °FClear.3 mph81%30.09 "Hg10 mi
5:20 AM46 °FClear.3 mph76%30.09 "Hg10 mi
4:50 AM45 °FClear.5 mph81%30.12 "Hg10 mi
11:20 PM
Fri, May 22
52 °FClear.3 mph77%30.18 "Hg10 mi
10:50 PM54 °FClear.2 mph63%30.18 "Hg10 mi
10:20 PM55 °FCool.2 mph63%30.18 "HgN/A
9:50 PM57 °FSunny.1 mph55%30.18 "Hg10 mi
9:20 PM61 °FSunny.3 mph45%30.15 "Hg10 mi
8:50 PM63 °FSunny.2 mph42%30.15 "Hg10 mi
8:20 PM64 °FPassing clouds.5 mph40%30.15 "HgN/A
7:50 PM64 °FSunny.6 mph37%30.15 "Hg10 mi
7:20 PM64 °FPassing clouds.5 mph34%30.15 "HgN/A
6:50 PM66 °FPassing clouds.7 mph32%30.15 "HgN/A
6:20 PM66 °FPassing clouds.10 mph32%30.18 "HgN/A
5:50 PM66 °FPassing clouds.7 mph28%30.18 "HgN/A
5:20 PM66 °FPassing clouds.7 mph30%30.18 "HgN/A
4:50 PM68 °FPassing clouds.9 mph26%30.18 "HgN/A
4:20 PM66 °FPassing clouds.10 mph30%30.21 "HgN/A
3:50 PM64 °FPassing clouds.9 mph34%30.21 "HgN/A
3:20 PM66 °FPassing clouds.10 mph32%30.21 "HgN/A
2:50 PM66 °FPassing clouds.10 mph30%30.24 "HgN/A
2:20 PM66 °FPassing clouds.12 mph30%30.24 "HgN/A
1:50 PM64 °FSunny.12 mph32%30.24 "Hg10 mi
1:20 PM64 °FPassing clouds.10 mph32%30.27 "HgN/A
Weather by CustomWeather, © 2015

See weather overviewHow to use our weather pages